Year,Month,Day,Hour,Minute,Value (Times are PST for windspeed in km/hr)
2010,01,18,00,00,6.30
2010,01,18,00,01,5.70
2010,01,18,00,02,7.40
2010,01,18,00,03,2.80
2010,01,18,00,04,5.70
2010,01,18,00,05,6.30
2010,01,18,00,06,13.70
2010,01,18,00,07,6.20
2010,01,18,00,08,11.80
2010,01,18,00,09,10.20
2010,01,18,00,10,10.30
2010,01,18,00,11,8.80
2010,01,18,00,12,21.00
2010,01,18,00,13,10.00
2010,01,18,00,14,8.40
2010,01,18,00,15,11.80
2010,01,18,00,16,13.70
2010,01,18,00,17,17.00
2010,01,18,00,18,11.60
2010,01,18,00,19,11.30
2010,01,18,00,20,17.10
2010,01,18,00,21,15.80
2010,01,18,00,22,12.20
2010,01,18,00,23,17.20
2010,01,18,00,24,15.40
2010,01,18,00,25,18.30
2010,01,18,00,26,34.90
2010,01,18,00,27,24.40
2010,01,18,00,28,12.00
2010,01,18,00,29,14.70
2010,01,18,00,30,17.60
2010,01,18,00,31,14.70
2010,01,18,00,32,14.80
2010,01,18,00,33,24.50
2010,01,18,00,34,13.10
2010,01,18,00,35,16.10
2010,01,18,00,36,15.50
2010,01,18,00,37,19.70
2010,01,18,00,38,19.70
2010,01,18,00,39,14.00
2010,01,18,00,40,21.00
2010,01,18,00,41,26.60
2010,01,18,00,42,19.50
2010,01,18,00,43,19.10
2010,01,18,00,44,15.10
2010,01,18,00,45,19.40
2010,01,18,00,46,20.00
2010,01,18,00,47,16.30
2010,01,18,00,48,14.40
2010,01,18,00,49,22.20
2010,01,18,00,50,20.00
2010,01,18,00,51,13.20
2010,01,18,00,52,15.60
2010,01,18,00,53,15.80
2010,01,18,00,54,15.60
2010,01,18,00,55,23.70
2010,01,18,00,56,18.00
2010,01,18,00,57,15.10
2010,01,18,00,58,13.20
2010,01,18,00,59,20.40
2010,01,18,01,00,19.40
2010,01,18,01,01,21.80
2010,01,18,01,02,17.40
2010,01,18,01,03,25.70
2010,01,18,01,04,23.00
2010,01,18,01,05,18.40
2010,01,18,01,06,17.90
2010,01,18,01,07,22.70
2010,01,18,01,08,24.50
2010,01,18,01,09,23.20
2010,01,18,01,10,17.80
2010,01,18,01,11,18.30
2010,01,18,01,12,21.80
2010,01,18,01,13,16.30
2010,01,18,01,14,18.40
2010,01,18,01,15,16.30
2010,01,18,01,16,21.80
2010,01,18,01,17,16.30
2010,01,18,01,18,23.90
2010,01,18,01,19,22.90
2010,01,18,01,20,21.50
2010,01,18,01,21,19.60
2010,01,18,01,22,15.40
2010,01,18,01,23,24.20
2010,01,18,01,24,19.30
2010,01,18,01,25,21.60
2010,01,18,01,26,16.80
2010,01,18,01,27,20.70
2010,01,18,01,28,17.20
2010,01,18,01,29,20.80
2010,01,18,01,30,19.80
2010,01,18,01,31,29.80
2010,01,18,01,32,18.30
2010,01,18,01,33,16.30
2010,01,18,01,34,22.10
2010,01,18,01,35,22.90
2010,01,18,01,36,17.90
2010,01,18,01,37,24.60
2010,01,18,01,38,16.90
2010,01,18,01,39,27.80
2010,01,18,01,40,21.90
2010,01,18,01,41,21.90
2010,01,18,01,42,22.50
2010,01,18,01,43,21.10
2010,01,18,01,44,18.30
2010,01,18,01,45,22.00
2010,01,18,01,46,25.70
2010,01,18,01,47,23.30
2010,01,18,01,48,24.90
2010,01,18,01,49,29.50
2010,01,18,01,53,32.90
2010,01,18,01,54,27.10
2010,01,18,01,55,25.70
2010,01,18,01,56,25.20
2010,01,18,01,57,28.30
2010,01,18,01,58,24.20
2010,01,18,01,59,24.70
2010,01,18,02,00,21.60
2010,01,18,02,01,22.30
2010,01,18,02,02,26.80
2010,01,18,02,03,36.80
2010,01,18,02,04,28.20
2010,01,18,02,05,26.70
2010,01,18,02,06,32.60
2010,01,18,02,07,23.70
2010,01,18,02,08,20.70
2010,01,18,02,09,27.20
2010,01,18,02,10,22.00
2010,01,18,02,11,27.40
2010,01,18,02,12,22.60
2010,01,18,02,13,27.10
2010,01,18,02,14,20.10
2010,01,18,02,15,24.20
2010,01,18,02,16,32.70
2010,01,18,02,17,25.70
2010,01,18,02,18,30.20
2010,01,18,02,19,26.40
2010,01,18,02,20,29.20
2010,01,18,02,21,22.90
2010,01,18,02,22,29.40
2010,01,18,02,23,27.80
2010,01,18,02,24,41.00
2010,01,18,02,25,35.40
2010,01,18,02,26,31.60
2010,01,18,02,27,32.80
2010,01,18,02,28,29.60
2010,01,18,02,29,26.90
2010,01,18,02,30,28.80
2010,01,18,02,31,28.10
2010,01,18,02,32,21.40
2010,01,18,02,33,30.50
2010,01,18,02,34,28.80
2010,01,18,02,35,26.50
2010,01,18,02,36,32.30
2010,01,18,02,37,34.70
2010,01,18,02,39,29.00
2010,01,18,02,40,24.10
2010,01,18,02,41,25.40
2010,01,18,02,42,28.90
2010,01,18,02,43,34.70
2010,01,18,02,44,38.00
2010,01,18,02,45,36.80
2010,01,18,02,46,38.90
2010,01,18,02,47,42.90
2010,01,18,02,48,32.50
2010,01,18,02,49,31.60
2010,01,18,02,50,35.10
2010,01,18,02,51,31.80
2010,01,18,02,52,29.60
2010,01,18,02,55,33.80
2010,01,18,02,56,41.60
2010,01,18,02,57,28.10
2010,01,18,02,58,41.90
2010,01,18,02,59,25.30
2010,01,18,03,00,27.00
2010,01,18,03,01,33.50
2010,01,18,03,02,38.40
2010,01,18,03,03,32.10
2010,01,18,03,04,38.00
2010,01,18,03,05,38.90
2010,01,18,03,06,25.90
2010,01,18,03,07,36.00
2010,01,18,03,08,33.80
2010,01,18,03,09,32.90
2010,01,18,03,10,20.50
2010,01,18,03,11,32.00
2010,01,18,03,12,28.10
2010,01,18,03,13,32.90
2010,01,18,03,14,37.20
2010,01,18,03,15,35.20
2010,01,18,03,16,27.40
2010,01,18,03,17,31.00
2010,01,18,03,18,29.90
2010,01,18,03,19,27.00
2010,01,18,03,20,29.10
2010,01,18,03,21,26.80
2010,01,18,03,22,36.10
2010,01,18,03,23,29.50
2010,01,18,03,24,30.40
2010,01,18,03,25,34.20
2010,01,18,03,26,24.60
2010,01,18,03,27,26.30
2010,01,18,03,28,28.80
2010,01,18,03,29,24.30
2010,01,18,03,30,27.60
2010,01,18,03,31,22.40
2010,01,18,03,32,23.60
2010,01,18,03,33,26.30
2010,01,18,03,34,25.50
2010,01,18,03,35,32.00
2010,01,18,03,36,21.40
2010,01,18,03,37,33.90
2010,01,18,03,38,27.90
2010,01,18,03,39,29.90
2010,01,18,03,40,24.90
2010,01,18,03,41,37.30
2010,01,18,03,42,28.90
2010,01,18,03,43,17.30
2010,01,18,03,44,29.00
2010,01,18,03,45,24.10
2010,01,18,03,46,30.90
2010,01,18,03,47,37.00
2010,01,18,03,48,25.90
2010,01,18,03,49,31.30
2010,01,18,03,50,16.10
2010,01,18,03,51,18.00
2010,01,18,03,52,23.20
2010,01,18,03,54,34.70
2010,01,18,03,55,30.70
2010,01,18,03,56,24.80
2010,01,18,03,57,20.70
2010,01,18,03,58,26.30
2010,01,18,03,59,21.00
2010,01,18,04,00,25.60
2010,01,18,04,01,29.10
2010,01,18,04,02,29.10
2010,01,18,04,03,25.10
2010,01,18,04,04,30.70
2010,01,18,04,05,32.90
2010,01,18,04,06,25.30
2010,01,18,04,07,19.10
2010,01,18,04,08,25.10
2010,01,18,04,09,26.50
2010,01,18,04,10,23.00
2010,01,18,04,11,20.60
2010,01,18,04,12,28.70
2010,01,18,04,13,31.30
2010,01,18,04,14,30.20
2010,01,18,04,15,30.30
2010,01,18,04,16,26.50
2010,01,18,04,17,18.80
2010,01,18,04,18,20.70
2010,01,18,04,19,22.60
2010,01,18,04,20,26.20
2010,01,18,04,21,31.80
2010,01,18,04,22,28.70
2010,01,18,04,23,22.70
2010,01,18,04,24,31.20
2010,01,18,04,25,21.00
2010,01,18,04,26,24.90
2010,01,18,04,27,27.30
2010,01,18,04,28,27.30
2010,01,18,04,29,27.60
2010,01,18,04,30,23.20
2010,01,18,04,31,20.80
2010,01,18,04,32,21.20
2010,01,18,04,33,17.10
2010,01,18,04,34,15.40
2010,01,18,04,35,22.40
2010,01,18,04,36,29.10
2010,01,18,04,37,22.40
2010,01,18,04,38,26.30
2010,01,18,04,39,32.80
2010,01,18,04,40,24.20
2010,01,18,04,41,21.20
2010,01,18,04,42,29.10
2010,01,18,04,43,28.70
2010,01,18,04,44,21.80
2010,01,18,04,45,25.60
2010,01,18,04,46,17.60
2010,01,18,04,47,24.80
2010,01,18,04,48,18.70
2010,01,18,04,49,14.70
2010,01,18,04,50,21.80
2010,01,18,04,51,22.10
2010,01,18,04,52,16.10
2010,01,18,04,53,23.10
2010,01,18,04,54,27.40
2010,01,18,04,55,12.80
2010,01,18,04,56,10.10
2010,01,18,04,57,13.20
2010,01,18,04,58,18.40
2010,01,18,04,59,19.10
2010,01,18,05,00,12.30
2010,01,18,05,01,24.20
2010,01,18,05,02,10.70
2010,01,18,05,03,17.60
2010,01,18,05,04,30.00
2010,01,18,05,05,25.80
2010,01,18,05,06,33.70
2010,01,18,05,07,30.50
2010,01,18,05,08,24.00
2010,01,18,05,09,25.60
2010,01,18,05,10,28.90
2010,01,18,05,11,23.00
2010,01,18,05,12,29.90
2010,01,18,05,13,29.70
2010,01,18,05,14,23.50
2010,01,18,05,15,18.50
2010,01,18,05,16,20.60
2010,01,18,05,17,29.40
2010,01,18,05,18,26.20
2010,01,18,05,19,20.80
2010,01,18,05,20,32.00
2010,01,18,05,21,22.50
2010,01,18,05,22,17.90
2010,01,18,05,23,15.40
2010,01,18,05,24,30.30
2010,01,18,05,25,22.80
2010,01,18,05,26,18.90
2010,01,18,05,27,25.50
2010,01,18,05,28,24.90
2010,01,18,05,29,28.80
2010,01,18,05,30,34.80
2010,01,18,05,31,28.00
2010,01,18,05,32,33.10
2010,01,18,05,33,24.80
2010,01,18,05,34,27.40
2010,01,18,05,35,36.60
2010,01,18,05,36,27.00
2010,01,18,05,37,14.80
2010,01,18,05,38,22.90
2010,01,18,05,39,11.60
2010,01,18,05,40,18.20
2010,01,18,05,41,23.70
2010,01,18,05,42,25.60
2010,01,18,05,43,23.40
2010,01,18,05,44,22.40
2010,01,18,05,45,15.10
2010,01,18,05,46,21.90
2010,01,18,05,47,9.20
2010,01,18,05,48,22.30
2010,01,18,05,49,35.20
2010,01,18,05,50,23.00
2010,01,18,05,51,21.30
2010,01,18,05,52,28.30
2010,01,18,05,53,19.20
2010,01,18,05,54,16.50
2010,01,18,05,55,17.50
2010,01,18,05,56,15.00
2010,01,18,05,57,19.80
2010,01,18,05,58,16.50
2010,01,18,05,59,17.60
2010,01,18,06,00,16.90
2010,01,18,06,01,28.20
2010,01,18,06,02,18.50
2010,01,18,06,03,18.30
2010,01,18,06,04,17.40
2010,01,18,06,05,22.00
2010,01,18,06,06,24.90
2010,01,18,06,07,21.90
2010,01,18,06,08,24.50
2010,01,18,06,09,18.30
2010,01,18,06,10,19.90
2010,01,18,06,11,22.20
2010,01,18,06,12,11.70
2010,01,18,06,13,17.10
2010,01,18,06,14,15.70
2010,01,18,06,15,14.20
2010,01,18,06,16,18.30
2010,01,18,06,17,17.90
2010,01,18,06,18,21.10
2010,01,18,06,19,21.20
2010,01,18,06,20,16.70
2010,01,18,06,21,18.00
2010,01,18,06,22,14.70
2010,01,18,06,23,16.50
2010,01,18,06,24,10.90
2010,01,18,06,25,9.30
2010,01,18,06,26,18.50
2010,01,18,06,27,20.30
2010,01,18,06,28,15.40
2010,01,18,06,29,11.40
2010,01,18,06,30,14.30
2010,01,18,06,31,15.00
2010,01,18,06,32,15.00
2010,01,18,06,33,12.40
2010,01,18,06,34,13.00
2010,01,18,06,35,17.10
2010,01,18,06,36,16.30
2010,01,18,06,37,10.40
2010,01,18,06,38,19.00
2010,01,18,06,39,15.20
2010,01,18,06,40,8.50
2010,01,18,06,41,22.10
2010,01,18,06,42,21.80
2010,01,18,06,43,13.70
2010,01,18,06,44,17.50
2010,01,18,06,45,14.00
2010,01,18,06,46,12.30
2010,01,18,06,47,24.50
2010,01,18,06,48,25.20
2010,01,18,06,49,19.90
2010,01,18,06,50,18.10
2010,01,18,06,51,15.70
2010,01,18,06,52,13.70
2010,01,18,06,53,10.20
2010,01,18,06,54,14.20
2010,01,18,06,55,12.80
2010,01,18,06,56,19.80
2010,01,18,06,57,19.10
2010,01,18,06,58,13.60
2010,01,18,06,59,18.00
2010,01,18,07,00,11.10
2010,01,18,07,01,17.10
2010,01,18,07,02,18.40
2010,01,18,07,03,16.60
2010,01,18,07,04,19.50
2010,01,18,07,05,15.10
2010,01,18,07,06,11.80
2010,01,18,07,07,12.80
2010,01,18,07,08,13.00
2010,01,18,07,09,15.90
2010,01,18,07,10,20.00
2010,01,18,07,11,18.50
2010,01,18,07,12,23.10
2010,01,18,07,13,22.90
2010,01,18,07,14,18.40
2010,01,18,07,15,15.70
2010,01,18,07,16,10.30
2010,01,18,07,17,7.90
2010,01,18,07,18,16.00
2010,01,18,07,19,11.30
2010,01,18,07,20,13.10
2010,01,18,07,21,15.10
2010,01,18,07,22,15.30
2010,01,18,07,23,14.80
2010,01,18,07,24,9.90
2010,01,18,07,25,18.00
2010,01,18,07,26,11.10
2010,01,18,07,27,10.40
2010,01,18,07,28,8.20
2010,01,18,07,29,9.70
2010,01,18,07,30,16.30
2010,01,18,07,31,11.80
2010,01,18,07,32,12.90
2010,01,18,07,33,11.30
2010,01,18,07,34,14.10
2010,01,18,07,35,13.60
2010,01,18,07,36,15.30
2010,01,18,07,37,20.50
2010,01,18,07,38,17.60
2010,01,18,07,39,17.30
2010,01,18,07,40,12.60
2010,01,18,07,41,16.60
2010,01,18,07,42,11.90
2010,01,18,07,43,15.60
2010,01,18,07,44,14.80
2010,01,18,07,45,9.10
2010,01,18,07,46,10.90
2010,01,18,07,47,11.80
2010,01,18,07,48,16.90
2010,01,18,07,49,7.10
2010,01,18,07,50,13.00
2010,01,18,07,51,15.60
2010,01,18,07,52,17.10
2010,01,18,07,53,17.60
2010,01,18,07,54,18.80
2010,01,18,07,55,9.60
2010,01,18,07,56,14.70
2010,01,18,07,57,10.10
2010,01,18,07,58,14.70
2010,01,18,07,59,9.10
2010,01,18,08,00,13.80
2010,01,18,08,01,10.10
2010,01,18,08,02,12.80
2010,01,18,08,03,15.30
2010,01,18,08,04,12.50
2010,01,18,08,05,13.00
2010,01,18,08,06,15.00
2010,01,18,08,07,15.40
2010,01,18,08,08,9.80
2010,01,18,08,09,15.50
2010,01,18,08,10,15.90
2010,01,18,08,11,16.30
2010,01,18,08,12,15.00
2010,01,18,08,13,9.00
2010,01,18,08,14,8.10
2010,01,18,08,15,10.60
2010,01,18,08,16,18.60
2010,01,18,08,17,11.30
2010,01,18,08,18,4.80
2010,01,18,08,19,18.60
2010,01,18,08,20,22.20
2010,01,18,08,21,8.60
2010,01,18,08,22,13.70
2010,01,18,08,23,10.70
2010,01,18,08,24,11.70
2010,01,18,08,25,13.80
2010,01,18,08,26,18.10
2010,01,18,08,27,14.40
2010,01,18,08,28,8.00
2010,01,18,08,29,13.80
2010,01,18,08,30,17.70
2010,01,18,08,31,6.40
2010,01,18,08,32,12.20
2010,01,18,08,33,10.30
2010,01,18,08,34,10.30
2010,01,18,08,35,12.50
2010,01,18,08,36,14.90
2010,01,18,08,37,16.00
2010,01,18,08,38,12.40
2010,01,18,08,39,10.80
2010,01,18,08,40,17.50
2010,01,18,08,41,14.60
2010,01,18,08,42,9.00
2010,01,18,08,43,9.10
2010,01,18,08,44,7.90
2010,01,18,08,45,10.20
2010,01,18,08,46,18.00
2010,01,18,08,47,14.30
2010,01,18,08,48,11.90
2010,01,18,08,49,10.50
2010,01,18,08,50,19.10
2010,01,18,08,51,12.20
2010,01,18,08,52,12.00
2010,01,18,08,53,24.70
2010,01,18,08,54,17.90
2010,01,18,08,55,15.80
2010,01,18,08,56,11.50
2010,01,18,08,57,7.20
2010,01,18,08,58,12.50
2010,01,18,08,59,9.80
2010,01,18,09,00,14.70
2010,01,18,09,01,14.70
2010,01,18,09,02,11.00
2010,01,18,09,03,11.30
2010,01,18,09,04,10.60
2010,01,18,09,05,12.00
2010,01,18,09,06,10.50
2010,01,18,09,07,6.00
2010,01,18,09,08,8.30
2010,01,18,09,09,12.90
2010,01,18,09,10,17.50
2010,01,18,09,11,20.20
2010,01,18,09,12,16.90
2010,01,18,09,13,12.40
2010,01,18,09,14,7.50
2010,01,18,09,15,19.70
2010,01,18,09,16,18.50
2010,01,18,09,17,19.70
2010,01,18,09,18,16.90
2010,01,18,09,19,8.70
2010,01,18,09,20,7.20
2010,01,18,09,21,7.50
2010,01,18,09,22,10.30
2010,01,18,09,23,11.80
2010,01,18,09,24,10.10
2010,01,18,09,25,12.50
2010,01,18,09,26,6.80
2010,01,18,09,27,7.10
2010,01,18,09,28,9.90
2010,01,18,09,29,4.50
2010,01,18,09,30,8.90
2010,01,18,09,31,13.70
2010,01,18,09,32,7.00
2010,01,18,09,33,12.00
2010,01,18,09,34,9.10
2010,01,18,09,35,14.00
2010,01,18,09,36,5.20
2010,01,18,09,37,9.10
2010,01,18,09,38,7.20
2010,01,18,09,39,15.00
2010,01,18,09,40,18.00
2010,01,18,09,41,15.30
2010,01,18,09,42,5.80
2010,01,18,09,43,3.10
2010,01,18,09,44,13.90
2010,01,18,09,45,11.40
2010,01,18,09,46,9.60
2010,01,18,09,47,12.50
2010,01,18,09,48,21.90
2010,01,18,09,49,20.70
2010,01,18,09,50,17.90
2010,01,18,09,51,14.30
2010,01,18,09,52,14.20
2010,01,18,09,53,4.30
2010,01,18,09,54,4.30
2010,01,18,09,55,12.70
2010,01,18,09,56,16.90
2010,01,18,09,57,17.00
2010,01,18,09,58,9.30
2010,01,18,09,59,11.60
2010,01,18,10,00,13.60
2010,01,18,10,01,12.20
2010,01,18,10,02,13.60
2010,01,18,10,03,11.60
2010,01,18,10,04,13.20
2010,01,18,10,05,14.00
2010,01,18,10,06,19.20
2010,01,18,10,07,10.40
2010,01,18,10,08,13.40
2010,01,18,10,09,12.90
2010,01,18,10,10,12.10
2010,01,18,10,11,18.40
2010,01,18,10,12,10.50
2010,01,18,10,13,11.50
2010,01,18,10,14,13.80
2010,01,18,10,15,13.00
2010,01,18,10,16,13.50
2010,01,18,10,17,11.80
2010,01,18,10,18,16.30
2010,01,18,10,19,14.10
2010,01,18,10,20,9.20
2010,01,18,10,21,4.90
2010,01,18,10,22,13.10
2010,01,18,10,23,16.20
2010,01,18,10,24,11.30
2010,01,18,10,25,13.00
2010,01,18,10,26,5.60
2010,01,18,10,27,9.20
2010,01,18,10,28,5.50
2010,01,18,10,29,9.30
2010,01,18,10,30,13.60
2010,01,18,10,31,9.50
2010,01,18,10,32,14.40
2010,01,18,10,33,9.10
2010,01,18,10,34,12.40
2010,01,18,10,35,12.60
2010,01,18,10,36,9.00
2010,01,18,10,37,8.70
2010,01,18,10,38,12.00
2010,01,18,10,39,14.10
2010,01,18,10,40,5.10
2010,01,18,10,41,12.90
2010,01,18,10,42,13.70
2010,01,18,10,43,10.30
2010,01,18,10,44,12.70
2010,01,18,10,45,6.90
2010,01,18,10,46,12.20
2010,01,18,10,47,15.10
2010,01,18,10,48,11.30
2010,01,18,10,49,14.20
2010,01,18,10,50,15.10
2010,01,18,10,51,13.50
2010,01,18,10,52,10.20
2010,01,18,10,53,9.20
2010,01,18,10,54,13.60
2010,01,18,10,55,9.70
2010,01,18,10,56,8.00
2010,01,18,10,57,10.40
2010,01,18,10,58,18.70
2010,01,18,10,59,16.00
2010,01,18,11,00,12.80
2010,01,18,11,01,14.90
2010,01,18,11,02,14.00
2010,01,18,11,03,15.70
2010,01,18,11,04,13.10
2010,01,18,11,05,12.00
2010,01,18,11,06,10.80
2010,01,18,11,07,14.30
2010,01,18,11,08,12.60
2010,01,18,11,09,10.40
2010,01,18,11,10,13.10
2010,01,18,11,11,10.50
2010,01,18,11,12,8.10
2010,01,18,11,13,7.60
2010,01,18,11,14,8.80
2010,01,18,11,15,6.20
2010,01,18,11,16,5.40
2010,01,18,11,17,7.90
2010,01,18,11,18,6.00
2010,01,18,11,19,5.30
2010,01,18,11,20,10.50
2010,01,18,11,21,14.90
2010,01,18,11,22,8.00
2010,01,18,11,23,11.00
2010,01,18,11,24,10.50
2010,01,18,11,25,9.90
2010,01,18,11,26,12.00
2010,01,18,11,27,9.40
2010,01,18,11,28,10.80
2010,01,18,11,29,7.70
2010,01,18,11,30,5.70
2010,01,18,11,31,4.90
2010,01,18,11,32,4.60
2010,01,18,11,33,6.30
2010,01,18,11,34,4.70
2010,01,18,11,35,4.30
2010,01,18,11,36,6.80
2010,01,18,11,37,8.60
2010,01,18,11,38,7.80
2010,01,18,11,39,9.40
2010,01,18,11,40,7.80
2010,01,18,11,41,7.00
2010,01,18,11,42,9.30
2010,01,18,11,43,6.20
2010,01,18,11,44,7.90
2010,01,18,11,45,6.40
2010,01,18,11,46,6.40
2010,01,18,11,47,7.40
2010,01,18,11,48,3.70
2010,01,18,11,49,2.00
2010,01,18,11,50,0.00
2010,01,18,11,51,0.10
2010,01,18,11,52,2.00
2010,01,18,11,53,2.80
2010,01,18,11,54,1.90
2010,01,18,11,55,0.30
2010,01,18,11,56,0.50
2010,01,18,11,57,0.40
2010,01,18,11,58,0.30
2010,01,18,11,59,0.10
2010,01,18,12,00,0.60
2010,01,18,12,01,0.10
2010,01,18,12,02,2.70
2010,01,18,12,03,2.50
2010,01,18,12,04,1.50
2010,01,18,12,05,0.20
2010,01,18,12,06,0.60
2010,01,18,12,07,2.30
2010,01,18,12,08,0.20
2010,01,18,12,09,0.00
2010,01,18,12,10,0.80
2010,01,18,12,11,1.40
2010,01,18,12,12,1.30
2010,01,18,12,13,1.00
2010,01,18,12,14,0.60
2010,01,18,12,15,0.80
2010,01,18,12,16,2.50
2010,01,18,12,17,5.30
2010,01,18,12,18,8.10
2010,01,18,12,19,5.80
2010,01,18,12,20,6.80
2010,01,18,12,21,4.20
2010,01,18,12,22,11.20
2010,01,18,12,23,8.90
2010,01,18,12,24,6.30
2010,01,18,12,25,9.00
2010,01,18,12,26,10.90
2010,01,18,12,27,8.90
2010,01,18,12,28,11.00
2010,01,18,12,29,4.10
2010,01,18,12,30,5.80
2010,01,18,12,31,5.80
2010,01,18,12,32,10.00
2010,01,18,12,33,8.00
2010,01,18,12,34,8.30
2010,01,18,12,35,9.60
2010,01,18,12,36,6.20
2010,01,18,12,37,3.30
2010,01,18,12,38,3.60
2010,01,18,12,39,2.50
2010,01,18,12,40,1.30
2010,01,18,12,41,3.60
2010,01,18,12,42,3.60
2010,01,18,12,43,1.70
2010,01,18,12,44,3.70
2010,01,18,12,45,1.40
2010,01,18,12,46,3.80
2010,01,18,12,47,2.10
2010,01,18,12,48,4.40
2010,01,18,12,49,4.80
2010,01,18,12,50,1.90
2010,01,18,12,51,1.90
2010,01,18,12,52,4.40
2010,01,18,12,53,2.90
2010,01,18,12,54,2.50
2010,01,18,12,55,1.60
2010,01,18,12,56,3.60
2010,01,18,12,57,1.30
2010,01,18,12,58,0.70
2010,01,18,12,59,0.90
2010,01,18,13,00,1.30
2010,01,18,13,01,1.20
2010,01,18,13,02,3.20
2010,01,18,13,03,4.70
2010,01,18,13,04,1.60
2010,01,18,13,05,6.80
2010,01,18,13,06,5.30
2010,01,18,13,07,4.10
2010,01,18,13,08,1.60
2010,01,18,13,09,8.20
2010,01,18,13,10,9.70
2010,01,18,13,11,5.80
2010,01,18,13,12,0.90
2010,01,18,13,13,1.30
2010,01,18,13,14,2.10
2010,01,18,13,15,3.90
2010,01,18,13,16,2.00
2010,01,18,13,17,4.10
2010,01,18,13,18,2.50
2010,01,18,13,19,3.50
2010,01,18,13,20,3.00
2010,01,18,13,21,4.60
2010,01,18,13,22,3.90
2010,01,18,13,23,2.50
2010,01,18,13,24,3.20
2010,01,18,13,25,3.80
2010,01,18,13,26,2.50
2010,01,18,13,27,3.40
2010,01,18,13,28,4.30
2010,01,18,13,29,4.70
2010,01,18,13,30,6.20
2010,01,18,13,31,4.10
2010,01,18,13,32,5.80
2010,01,18,13,33,9.70
2010,01,18,13,34,9.60
2010,01,18,13,35,9.60
2010,01,18,13,36,8.50
2010,01,18,13,37,8.60
2010,01,18,13,38,7.90
2010,01,18,13,39,6.70
2010,01,18,13,40,4.40
2010,01,18,13,41,2.90
2010,01,18,13,42,2.60
2010,01,18,13,43,1.00
2010,01,18,13,44,5.50
2010,01,18,13,45,5.70
2010,01,18,13,46,7.50
2010,01,18,13,47,6.40
2010,01,18,13,48,5.50
2010,01,18,13,49,4.80
2010,01,18,13,50,4.40
2010,01,18,13,51,2.70
2010,01,18,13,52,4.20
2010,01,18,13,53,0.60
2010,01,18,13,54,1.70
2010,01,18,13,55,0.00
2010,01,18,13,56,0.20
2010,01,18,13,57,0.20
2010,01,18,13,58,0.20
2010,01,18,13,59,0.00
2010,01,18,14,00,0.10
2010,01,18,14,01,1.20
2010,01,18,14,02,0.20
2010,01,18,14,03,0.20
2010,01,18,14,04,1.60
2010,01,18,14,05,0.20
2010,01,18,14,06,0.40
2010,01,18,14,07,0.30
2010,01,18,14,08,0.00
2010,01,18,14,09,1.70
2010,01,18,14,10,2.40
2010,01,18,14,11,1.80
2010,01,18,14,12,1.80
2010,01,18,14,13,0.10
2010,01,18,14,14,0.30
2010,01,18,14,15,1.10
2010,01,18,14,16,0.40
2010,01,18,14,17,0.00
2010,01,18,14,18,0.90
2010,01,18,14,19,1.40
2010,01,18,14,20,0.40
2010,01,18,14,21,2.50
2010,01,18,14,22,2.30
2010,01,18,14,23,2.70
2010,01,18,14,24,3.60
2010,01,18,14,25,2.60
2010,01,18,14,26,3.50
2010,01,18,14,27,2.30
2010,01,18,14,28,0.20
2010,01,18,14,29,1.10
2010,01,18,14,30,1.30
2010,01,18,14,31,1.00
2010,01,18,14,32,0.90
2010,01,18,14,33,1.10
2010,01,18,14,34,0.40
2010,01,18,14,35,0.30
2010,01,18,14,36,0.60
2010,01,18,14,37,0.10
2010,01,18,14,38,0.00
2010,01,18,14,39,0.00
2010,01,18,14,40,0.00
2010,01,18,14,41,0.00
2010,01,18,14,42,0.00
2010,01,18,14,43,0.00
2010,01,18,14,44,0.00
2010,01,18,14,45,0.00
2010,01,18,14,46,0.00
2010,01,18,14,47,0.80
2010,01,18,14,48,1.60
2010,01,18,14,49,0.90
2010,01,18,14,50,0.40
2010,01,18,14,51,2.90
2010,01,18,14,52,2.10
2010,01,18,14,53,3.50
2010,01,18,14,54,2.00
2010,01,18,14,55,1.80
2010,01,18,14,56,1.90
2010,01,18,14,57,3.10
2010,01,18,14,58,4.50
2010,01,18,14,59,4.50
2010,01,18,15,00,4.30
2010,01,18,15,01,3.60
2010,01,18,15,02,1.80
2010,01,18,15,03,0.60
2010,01,18,15,04,1.50
2010,01,18,15,05,0.00
2010,01,18,15,06,0.00
2010,01,18,15,07,0.00
2010,01,18,15,08,0.00
2010,01,18,15,09,0.00
2010,01,18,15,10,0.00
2010,01,18,15,11,0.00
2010,01,18,15,12,0.00
2010,01,18,15,13,0.00
2010,01,18,15,14,0.00
2010,01,18,15,15,2.10
2010,01,18,15,16,2.90
2010,01,18,15,17,2.70
2010,01,18,15,18,0.20
2010,01,18,15,19,0.00
2010,01,18,15,20,0.00
2010,01,18,15,21,0.00
2010,01,18,15,22,0.00
2010,01,18,15,23,0.00
2010,01,18,15,24,0.00
2010,01,18,15,25,0.00
2010,01,18,15,26,0.00
2010,01,18,15,27,0.00
2010,01,18,15,28,0.00
2010,01,18,15,29,0.00
2010,01,18,15,30,0.00
2010,01,18,15,31,3.10
2010,01,18,15,32,0.30
2010,01,18,15,33,0.00
2010,01,18,15,34,0.00
2010,01,18,15,35,0.00
2010,01,18,15,36,0.00
2010,01,18,15,37,0.00
2010,01,18,15,38,0.00
2010,01,18,15,39,0.00
2010,01,18,15,40,0.00
2010,01,18,15,41,0.00
2010,01,18,15,42,0.00
2010,01,18,15,43,0.00
2010,01,18,15,44,0.00
2010,01,18,15,45,0.00
2010,01,18,15,46,0.00
2010,01,18,15,47,0.00
2010,01,18,15,48,0.00
2010,01,18,15,49,0.00
2010,01,18,15,50,0.00
2010,01,18,15,51,0.00
2010,01,18,15,52,0.00
2010,01,18,15,53,0.00
2010,01,18,15,54,0.00
2010,01,18,15,55,0.00
2010,01,18,15,56,0.00
2010,01,18,15,57,0.00
2010,01,18,15,58,0.00
2010,01,18,15,59,0.00
2010,01,18,16,00,0.00
2010,01,18,16,01,0.00
2010,01,18,16,02,0.00
2010,01,18,16,03,0.00
2010,01,18,16,04,1.20
2010,01,18,16,05,1.80
2010,01,18,16,06,0.30
2010,01,18,16,07,0.10
2010,01,18,16,08,0.00
2010,01,18,16,09,0.00
2010,01,18,16,10,0.20
2010,01,18,16,11,0.00
2010,01,18,16,12,0.90
2010,01,18,16,13,0.00
2010,01,18,16,14,0.00
2010,01,18,16,15,0.00
2010,01,18,16,16,0.00
2010,01,18,16,17,0.00
2010,01,18,16,18,0.00
2010,01,18,16,19,0.10
2010,01,18,16,20,1.00
2010,01,18,16,21,1.20
2010,01,18,16,22,1.30
2010,01,18,16,23,1.90
2010,01,18,16,24,1.90
2010,01,18,16,25,1.40
2010,01,18,16,26,0.10
2010,01,18,16,27,0.00
2010,01,18,16,28,0.00
2010,01,18,16,29,0.00
2010,01,18,16,30,0.00
2010,01,18,16,31,0.00
2010,01,18,16,32,0.00
2010,01,18,16,33,0.00
2010,01,18,16,34,0.30
2010,01,18,16,35,0.40
2010,01,18,16,36,0.70
2010,01,18,16,37,1.00
2010,01,18,16,38,0.00
2010,01,18,16,39,0.00
2010,01,18,16,40,0.00
2010,01,18,16,41,0.00
2010,01,18,16,42,0.00
2010,01,18,16,43,0.00
2010,01,18,16,44,0.00
2010,01,18,16,45,0.00
2010,01,18,16,46,0.00
2010,01,18,16,47,0.00
2010,01,18,16,48,0.00
2010,01,18,16,49,0.00
2010,01,18,16,50,0.00
2010,01,18,16,51,0.00
2010,01,18,16,52,0.00
2010,01,18,16,53,0.00
2010,01,18,16,54,0.00
2010,01,18,16,55,0.00
2010,01,18,16,56,0.00
2010,01,18,16,57,3.00
2010,01,18,16,58,1.90
2010,01,18,16,59,0.10
2010,01,18,17,00,0.00
2010,01,18,17,01,0.00
2010,01,18,17,02,0.10
2010,01,18,17,03,1.90
2010,01,18,17,04,1.80
2010,01,18,17,05,1.20
2010,01,18,17,06,0.00
2010,01,18,17,07,0.00
2010,01,18,17,08,0.00
2010,01,18,17,09,0.00
2010,01,18,17,10,0.00
2010,01,18,17,11,0.00
2010,01,18,17,12,0.00
2010,01,18,17,13,0.00
2010,01,18,17,14,0.30
2010,01,18,17,15,0.30
2010,01,18,17,16,0.00
2010,01,18,17,17,0.00
2010,01,18,17,18,0.00
2010,01,18,17,19,0.00
2010,01,18,17,20,0.00
2010,01,18,17,21,0.00
2010,01,18,17,22,0.00
2010,01,18,17,23,0.00
2010,01,18,17,24,0.00
2010,01,18,17,25,0.00
2010,01,18,17,26,0.00
2010,01,18,17,27,0.00
2010,01,18,17,28,0.00
2010,01,18,17,29,0.00
2010,01,18,17,30,0.70
2010,01,18,17,31,0.00
2010,01,18,17,32,0.00
2010,01,18,17,33,0.00
2010,01,18,17,34,0.00
2010,01,18,17,35,0.00
2010,01,18,17,36,0.00
2010,01,18,17,37,0.00
2010,01,18,17,38,0.00
2010,01,18,17,39,0.00
2010,01,18,17,40,0.00
2010,01,18,17,41,0.40
2010,01,18,17,42,1.80
2010,01,18,17,43,0.00
2010,01,18,17,44,0.10
2010,01,18,17,45,0.00
2010,01,18,17,46,0.00